TimeHST,TemperatureF,Dew PointF,Humidity,Sea Level PressureIn,VisibilityMPH,Wind Direction,Wind SpeedMPH,Gust SpeedMPH,PrecipitationIn,Events,Conditions,WindDirDegrees,DateUTC
12:53 AM,68.0,63.0,84,30.02,10.0,NE,3.5,-,N/A,,Clear,40,2012-11-05 10:53:00
1:53 AM,68.0,62.1,81,30.01,10.0,Calm,Calm,-,N/A,,Clear,0,2012-11-05 11:53:00
2:53 AM,66.0,62.1,87,30.00,10.0,Calm,Calm,-,N/A,,Clear,0,2012-11-05 12:53:00
3:53 AM,64.9,62.1,90,29.98,9.0,Calm,Calm,-,N/A,,Clear,0,2012-11-05 13:53:00
4:53 AM,64.9,62.1,90,29.99,9.0,Calm,Calm,-,N/A,,Clear,0,2012-11-05 14:53:00
5:53 AM,64.9,62.1,90,29.99,10.0,Calm,Calm,-,N/A,,Clear,0,2012-11-05 15:53:00
6:53 AM,66.0,62.1,87,30.00,10.0,Calm,Calm,-,N/A,,Clear,0,2012-11-05 16:53:00
7:53 AM,73.0,64.9,76,30.01,10.0,Calm,Calm,-,N/A,,Clear,0,2012-11-05 17:53:00
8:53 AM,77.0,66.0,69,30.02,10.0,Calm,Calm,-,N/A,,Partly Cloudy,0,2012-11-05 18:53:00
9:53 AM,79.0,66.0,64,30.02,10.0,Variable,4.6,-,N/A,,Mostly Cloudy,0,2012-11-05 19:53:00
10:53 AM,82.0,64.0,54,30.01,10.0,Variable,5.8,-,N/A,,Scattered Clouds,0,2012-11-05 20:53:00
11:53 AM,84.9,61.0,44,29.98,10.0,Variable,6.9,-,N/A,,Partly Cloudy,0,2012-11-05 21:53:00
12:53 PM,82.9,60.1,46,29.96,10.0,East,9.2,-,N/A,,Clear,80,2012-11-05 22:53:00
1:53 PM,84.0,60.1,44,29.93,10.0,Variable,4.6,-,N/A,,Clear,0,2012-11-05 23:53:00
2:53 PM,82.9,64.0,53,29.92,10.0,Variable,5.8,-,N/A,,Scattered Clouds,0,2012-11-06 00:53:00
3:53 PM,81.0,64.0,56,29.92,10.0,Variable,5.8,-,N/A,,Scattered Clouds,0,2012-11-06 01:53:00
4:53 PM,80.1,64.0,58,29.94,10.0,Variable,6.9,-,N/A,,Clear,0,2012-11-06 02:53:00
5:53 PM,77.0,64.9,66,29.95,10.0,Variable,3.5,-,N/A,,Clear,0,2012-11-06 03:53:00
6:53 PM,75.0,64.9,71,29.96,10.0,Variable,5.8,-,N/A,,Clear,0,2012-11-06 04:53:00
7:53 PM,75.0,64.9,71,29.98,10.0,Calm,Calm,-,N/A,,Clear,0,2012-11-06 05:53:00
8:53 PM,75.0,66.0,73,29.99,10.0,ENE,8.1,-,N/A,,Clear,70,2012-11-06 06:53:00
9:53 PM,73.9,64.9,73,29.99,10.0,ENE,4.6,-,N/A,,Clear,70,2012-11-06 07:53:00
10:53 PM,75.0,66.0,73,29.99,10.0,ENE,4.6,-,N/A,,Clear,70,2012-11-06 08:53:00
11:53 PM,73.9,66.0,76,29.98,10.0,Calm,Calm,-,N/A,,Clear,0,2012-11-06 09:53:00